[[{"header":{"parameterUnit":"m.s-1","parameterCategory":1,"la1":30.2991,"la2":30.254,"lo1":-89.0895,"lo2":-89.0444,"dy":0.0017,"dx":0.0017,"nx":28,"ny":28,"refTime":"2023-11-02T09:00:00:Z","depth":0,"parameterNumber":2,"parameterNumberName":"U-component_of_WINDS"},"data":[0,0,0,0,0,0,0,0,0,0,0,0,0,0,0,0,0,0,0,0,0,0,0,0,0,0,0,0,0,0,0,0,0,0,0,0,0,0,0,0,0,0,0,0,0,0,0,0,0,0,0,0,0,0,0,0,0,0,-3.6699,-3.6699,0,-3.6763,-3.6764,-3.6765,-3.6621,-3.6616,-3.6612,-3.6607,-3.6676,-3.6682,-3.6688,0,0,0,0,0,0,0,0,0,0,0,0,0,-3.6452,-3.6457,-3.6698,-3.6699,-3.67,-3.6763,-3.6764,-3.6765,-3.6622,-3.6616,-3.6611,-3.6605,-3.6674,-3.6682,-3.6689,0,0,0,0,0,0,0,0,0,0,0,0,0,-3.6542,-3.6459,-3.6698,-3.6636,-3.6631,-3.6763,-3.6764,-3.6765,-3.6623,-3.6616,-3.6609,-3.6603,-3.6672,-3.6681,-3.669,-3.6886,0,0,-3.6718,-3.6722,0,0,0,0,0,0,0,0,-3.6537,-3.6551,-3.6645,-3.6641,-3.6635,-3.6677,-3.6702,-3.6806,-3.6625,-3.6626,-3.6607,-3.6599,-3.6682,-3.669,-3.6718,-3.6889,-3.6892,-3.6719,-3.6725,-3.6729,-3.6731,0,0,0,0,0,0,0,-3.6531,-3.6548,-3.6724,-3.6646,-3.6641,-3.6605,-3.6611,-3.6721,-3.6693,-3.6626,-3.6615,-3.6625,-3.6679,-3.6709,-3.6718,-3.6893,-3.6719,-3.6727,-3.6733,-3.6736,-3.7227,-3.7234,0,0,0,0,0,0,-3.6533,-3.6544,-3.6722,-3.6726,-3.6568,-3.6616,-3.6621,-3.6671,-3.6691,-3.6687,-3.6631,-3.6618,-3.6697,-3.6708,-3.672,-3.695,-3.6729,-3.6737,-3.6742,-3.7219,-3.7228,-3.7237,0,0,0,0,0,0,-3.6528,-3.655,-3.6719,-3.6632,-3.6651,-3.6627,-3.6684,-3.6676,-3.6706,-3.6695,-3.6689,-3.6667,-3.6692,-3.6707,-3.6845,-3.695,-3.6741,-3.675,-3.721,-3.7222,-3.7232,-3.7412,0,0,0,0,0,0,-3.6521,-3.6549,-3.6623,-3.6635,-3.6656,-3.6844,-3.669,-3.6682,-3.6722,-3.6706,-3.6728,-3.6724,-3.6688,-3.6832,-3.6854,-3.6959,-3.6757,-3.7201,-3.7216,-3.7229,-3.7397,-3.7428,-3.7455,0,0,0,0,0,-3.6513,-3.6672,-3.6628,-3.665,-3.6748,-3.685,-3.6862,-3.6816,-3.6731,-3.6805,-3.6798,-3.6724,-3.6935,-3.6848,-3.6871,-3.6981,-3.7194,-3.7212,-3.7228,-3.7383,-3.7422,-3.7454,0,0,0,0,0,0,-3.6674,-3.6672,-3.6623,-3.679,-3.6821,-3.6826,-3.6918,-3.6858,-3.6915,-3.6897,-3.6838,-3.6844,-3.6993,-3.7,-3.6903,-3.717,-3.705,-3.7073,-3.716,-3.7197,-3.7225,-3.7221,-3.6765,0,0,0,0,0,-3.6729,-3.6812,-3.6805,-3.6954,-3.6971,-3.6943,-3.6985,-3.6947,-3.6977,-3.6989,-3.6992,-3.7024,-3.7097,-3.7147,-3.7214,-3.7396,-3.7399,-3.7483,-3.7512,-3.7536,-3.7557,-3.7652,-3.769,-3.7292,-3.7292,-3.7291,0,0,-3.6844,-3.6853,-3.6909,-3.6986,-3.7006,-3.7093,-3.6955,-3.7053,-3.7116,-3.7004,-3.7134,-3.7138,-3.717,-3.733,-3.7401,-3.7341,-3.7667,-3.7558,-3.7577,-3.7584,-3.7674,-3.7711,-3.7745,-3.7303,-3.7301,-3.7299,0,0,-3.7097,-3.7112,-3.7237,-3.7259,-3.7289,-3.7268,-3.7299,-3.7312,-3.7309,-3.7438,-3.7356,-3.7431,-3.7559,-3.7585,-3.7615,-3.7877,-3.7811,-3.79,-3.8053,-3.8147,-3.8178,-3.8206,-3.8299,-3.8333,-3.792,-3.7921,-3.7921,0,-3.7236,-3.7363,-3.7308,-3.7412,-3.7448,-3.7349,-3.7475,-3.7499,-3.7551,-3.7578,-3.751,-3.7667,-3.7682,-3.7847,-3.7911,-3.7939,-3.7971,-3.7898,-3.8178,-3.8205,-3.823,-3.8318,-3.8353,-3.7932,-3.793,-3.7929,-3.7928,0,-3.7531,-3.7621,-3.7718,-3.7769,-3.7816,-3.793,-3.7894,-3.7948,-3.7905,-3.7892,-3.8024,-3.8038,-3.8106,-3.8142,-3.8102,-3.8302,-3.8263,-3.8188,-3.8066,-3.8279,-3.8361,-3.8394,-3.7947,-3.7943,-3.794,-3.7937,0,0,-3.7889,-3.7907,-3.7944,-3.7965,-3.7991,-3.806,-3.8169,-3.8234,-3.8282,-3.8321,-3.8411,-3.8521,-3.845,-3.8485,-3.8446,-3.8529,-3.8734,-3.8442,-3.8442,-3.8496,-3.8955,-3.9011,-3.9051,-3.869,-3.8697,-3.8702,-3.8952,0,-3.8139,-3.8326,-3.828,-3.8466,-3.8547,-3.8454,-3.8549,-3.8576,-3.8566,-3.8634,-3.8623,-3.8702,-3.8603,-3.8623,-3.8701,-3.8693,-3.8826,-3.8674,-3.8774,-3.8778,-3.8769,-3.9094,-3.9155,-3.939,-3.8983,-3.8989,-3.8993,0,-3.8456,-3.8505,-3.8699,-3.871,-3.8743,-3.883,-3.8885,-3.8951,-3.8979,-3.8966,-3.9004,-3.8948,-3.9056,-3.8934,-3.9082,-3.898,-3.9017,-3.902,-3.9028,-3.9035,-3.8899,-3.911,-3.9464,-3.95,-3.9042,-3.9039,-3.9035,0,-3.8697,-3.8812,-3.8942,-3.8964,-3.898,-3.9043,-3.9053,-3.9074,-3.9116,-3.9164,-3.9191,-3.9252,-3.9286,-3.9334,-3.9297,-3.9211,-3.9451,-3.9325,-3.9443,-3.9445,-3.9498,-3.9496,-3.9863,-3.9524,-3.9523,-3.9523,-3.9522,0,-3.898,-3.9103,-3.905,-3.9131,-3.9265,-3.921,-3.9345,-3.9344,-3.9363,-3.9442,-3.9365,-3.944,-3.9386,-3.9458,-3.9429,-3.9556,-3.9572,-3.9564,-3.9555,-3.9571,-3.9572,-3.9595,-3.9578,-3.9532,-3.953,-3.9528,-3.9526,0,-3.9272,-3.9242,-3.9378,-3.9382,-3.9386,-3.9485,-3.9488,-3.9563,-3.9547,-3.9647,-3.9668,-3.9643,-3.9723,-3.969,-3.9775,-3.9755,-3.9918,-3.9887,-3.9908,-3.99,-4.002,-4.0009,-4.0416,-4.0466,-4.0095,-4.0098,-4.0101,0,-3.9455,-3.9547,-3.9561,-3.9607,-3.9622,-3.9699,-3.974,-3.969,-3.9737,-3.9775,-3.9845,-3.9917,-3.9973,-4.0104,-4.0094,-4.0158,-4.0129,-4.0267,-4.0138,-4.0151,-4.013,-4.0125,-4.0134,-4.0293,-4.0297,-4.03,-4.0303,0,-3.9783,-3.9764,-3.9826,-3.9884,-3.9936,-3.9979,-4.0016,-4.0058,-4.001,-4.0066,-4.0146,-4.0189,-4.0274,-4.0347,-4.0404,-4.0414,-4.0352,-4.0344,-4.0374,-4.0392,-4.04,-4.0396,-3.9978,-4.0335,-4.0332,-4.0329,-4.0328,-4.0326,-4.0026,-4.0102,-4.0124,-4.0196,-4.0218,-4.0254,-4.0323,-4.0315,-4.0381,-4.0446,-4.0412,-4.0505,-4.0529,-4.0599,-4.0618,-4.0689,-4.0635,-4.068,-4.0691,-4.0703,-4.0718,-4.0388,-4.07,-4.0699,-4.0698,-4.0697,-4.0696,0,-4.0349,-4.0358,-4.0425,-4.0478,-4.0535,-4.0469,-4.0506,-4.0558,-4.064,-4.0668,-4.0723,-4.0815,-4.0885,-4.088,-4.0944,-4.1003,-4.0976,-4.1022,-4.1017,-4.102,-4.0763,-4.073,-4.1042,-4.1042,-4.1042,-4.1042,-4.1042,-4.1042,-4.0524,-4.065,-4.0633,-4.0768,-4.0776,-4.0865,-4.0892,-4.0924,-4.0946,-4.1051,-4.1108,-4.1104,-4.1119,-4.1184,-4.1245,-4.1242,-4.1269,-4.1326,-4.1312,-4.1072,-4.1038,-4.1005,-4.0974,-4.1332,-4.1333,-4.1562,-4.1564,-4.1566]},{"header":{"parameterUnit":"m.s-1","parameterCategory":1,"la1":30.2991,"la2":30.254,"lo1":-89.0895,"lo2":-89.0444,"dy":0.0017,"dx":0.0017,"nx":28,"ny":28,"refTime":"2023-11-02T09:00:00:Z","depth":0,"parameterNumber":3,"parameterNumberName":"V-component_of_WINDS"},"data":[0,0,0,0,0,0,0,0,0,0,0,0,0,0,0,0,0,0,0,0,0,0,0,0,0,0,0,0,0,0,0,0,0,0,0,0,0,0,0,0,0,0,0,0,0,0,0,0,0,0,0,0,0,0,0,0,0,0,-2.2163,-2.2163,0,-2.215,-2.2149,-2.2149,-2.221,-2.2211,-2.2213,-2.2215,-2.2195,-2.2193,-2.2191,0,0,0,0,0,0,0,0,0,0,0,0,0,-2.2235,-2.2234,-2.2163,-2.2163,-2.2163,-2.215,-2.2149,-2.2149,-2.2209,-2.2211,-2.2214,-2.2216,-2.2196,-2.2193,-2.2191,0,0,0,0,0,0,0,0,0,0,0,0,0,-2.2211,-2.2233,-2.2163,-2.2192,-2.2194,-2.215,-2.2149,-2.2149,-2.2209,-2.2211,-2.2214,-2.2217,-2.2197,-2.2193,-2.219,-2.2116,0,0,-2.218,-2.2179,0,0,0,0,0,0,0,0,-2.2212,-2.2208,-2.2188,-2.219,-2.2192,-2.2184,-2.2168,-2.2138,-2.2208,-2.2203,-2.2215,-2.2218,-2.2189,-2.2186,-2.2178,-2.2116,-2.2115,-2.218,-2.2178,-2.2177,-2.2176,0,0,0,0,0,0,0,-2.2214,-2.2209,-2.2158,-2.2187,-2.219,-2.2203,-2.2202,-2.2162,-2.2181,-2.2204,-2.2208,-2.2206,-2.2191,-2.2181,-2.2178,-2.2114,-2.218,-2.2177,-2.2175,-2.2174,-2.1985,-2.1982,0,0,0,0,0,0,-2.2213,-2.221,-2.2158,-2.2157,-2.2209,-2.2199,-2.2199,-2.2184,-2.2182,-2.2184,-2.2204,-2.2209,-2.2185,-2.2182,-2.2177,-2.2086,-2.2177,-2.2173,-2.2172,-2.1988,-2.1985,-2.1981,0,0,0,0,0,0,-2.2214,-2.2207,-2.2159,-2.2185,-2.218,-2.2195,-2.2178,-2.2182,-2.2172,-2.2182,-2.2185,-2.219,-2.2187,-2.2182,-2.213,-2.2086,-2.2172,-2.2169,-2.1992,-2.1987,-2.1983,-2.1906,0,0,0,0,0,0,-2.2216,-2.2208,-2.2181,-2.2184,-2.2178,-2.2114,-2.2176,-2.218,-2.2167,-2.2174,-2.217,-2.2172,-2.2189,-2.2135,-2.2127,-2.2083,-2.2166,-2.1996,-2.199,-2.1984,-2.1912,-2.1899,-2.1888,0,0,0,0,0,-2.2218,-2.216,-2.218,-2.2173,-2.2146,-2.2111,-2.2108,-2.213,-2.2164,-2.2136,-2.2141,-2.2172,-2.2094,-2.2129,-2.2121,-2.2075,-2.1999,-2.1991,-2.1985,-2.1918,-2.1902,-2.1888,0,0,0,0,0,0,-2.215,-2.2161,-2.2183,-2.2124,-2.2116,-2.2122,-2.2087,-2.2113,-2.2094,-2.2101,-2.2128,-2.2126,-2.2068,-2.2068,-2.2107,-2.2001,-2.2052,-2.2043,-2.2003,-2.1988,-2.1976,-2.1975,-2.2164,0,0,0,0,0,-2.2129,-2.2102,-2.2112,-2.2059,-2.2055,-2.2071,-2.2057,-2.2075,-2.2067,-2.2064,-2.2066,-2.2055,-2.2027,-2.2009,-2.1985,-2.1914,-2.1911,-2.1879,-2.1866,-2.1857,-2.1847,-2.1804,-2.1788,-2.1959,-2.1959,-2.1959,0,0,-2.2084,-2.2086,-2.2067,-2.2046,-2.2042,-2.201,-2.2068,-2.2033,-2.2009,-2.2058,-2.2008,-2.2009,-2.1999,-2.1936,-2.1908,-2.1933,-2.1799,-2.1848,-2.184,-2.1835,-2.1795,-2.1779,-2.1764,-2.1954,-2.1955,-2.1956,0,0,-2.1984,-2.1985,-2.1939,-2.1934,-2.1928,-2.1939,-2.1928,-2.1929,-2.1931,-2.1883,-2.1917,-2.1888,-2.1842,-2.1831,-2.182,-2.1715,-2.174,-2.1706,-2.1641,-2.1599,-2.1585,-2.1573,-2.153,-2.1515,-2.1698,-2.1698,-2.1698,0,-2.1927,-2.1883,-2.1912,-2.1873,-2.1861,-2.1906,-2.1857,-2.185,-2.1835,-2.1824,-2.1854,-2.1793,-2.179,-2.1723,-2.1697,-2.1689,-2.1673,-2.1704,-2.1585,-2.1574,-2.1563,-2.1521,-2.1506,-2.1693,-2.1694,-2.1694,-2.1695,0,-2.1811,-2.178,-2.1743,-2.1728,-2.1712,-2.1668,-2.1688,-2.1668,-2.1687,-2.1694,-2.1641,-2.1639,-2.1613,-2.1599,-2.1618,-2.1533,-2.1548,-2.1581,-2.1631,-2.1541,-2.1503,-2.1488,-2.1687,-2.1688,-2.169,-2.1691,0,0,-2.1665,-2.1667,-2.1652,-2.1644,-2.164,-2.1614,-2.1572,-2.1548,-2.1527,-2.1516,-2.1477,-2.1436,-2.1466,-2.1453,-2.1471,-2.1435,-2.1344,-2.1471,-2.1471,-2.1443,-2.1244,-2.1214,-2.1196,-2.1363,-2.1361,-2.1358,-2.1242,0,-2.1563,-2.1491,-2.1515,-2.1441,-2.1409,-2.1451,-2.1413,-2.1405,-2.141,-2.1382,-2.1389,-2.1356,-2.1401,-2.1393,-2.1359,-2.1362,-2.1303,-2.1372,-2.1322,-2.132,-2.1318,-2.1177,-2.1147,-2.1038,-2.1228,-2.1226,-2.1224,0,-2.1433,-2.1416,-2.1339,-2.1337,-2.1324,-2.129,-2.1267,-2.1242,-2.1232,-2.1238,-2.1223,-2.1248,-2.1202,-2.1256,-2.119,-2.1236,-2.1218,-2.1216,-2.1212,-2.1204,-2.1262,-2.1159,-2.1004,-2.0985,-2.1202,-2.1204,-2.1205,0,-2.1327,-2.1286,-2.1233,-2.1225,-2.1223,-2.1197,-2.1195,-2.1188,-2.117,-2.1151,-2.1138,-2.1114,-2.1098,-2.1077,-2.1092,-2.1131,-2.1022,-2.1079,-2.1021,-2.102,-2.0992,-2.0992,-2.0825,-2.099,-2.099,-2.0991,-2.0991,0,-2.1207,-2.1156,-2.1185,-2.1151,-2.1094,-2.1122,-2.1064,-2.1067,-2.106,-2.1025,-2.1061,-2.1027,-2.1053,-2.102,-2.1032,-2.0972,-2.0967,-2.0967,-2.097,-2.096,-2.0959,-2.0945,-2.095,-2.0986,-2.0987,-2.0988,-2.0989,0,-2.1077,-2.1095,-2.1038,-2.1041,-2.1041,-2.0998,-2.0999,-2.0966,-2.0975,-2.093,-2.0921,-2.0934,-2.0897,-2.0912,-2.0873,-2.0881,-2.0802,-2.0819,-2.0805,-2.0807,-2.0747,-2.0749,-2.056,-2.0533,-2.072,-2.0719,-2.0717,0,-2.0996,-2.0958,-2.0956,-2.0936,-2.0931,-2.0899,-2.0882,-2.0907,-2.0887,-2.0871,-2.0839,-2.0806,-2.078,-2.0718,-2.0721,-2.0691,-2.0702,-2.0638,-2.0697,-2.0687,-2.0693,-2.0693,-2.0686,-2.0624,-2.0621,-2.062,-2.0618,0,-2.0848,-2.0858,-2.0833,-2.0809,-2.0787,-2.0769,-2.0754,-2.0735,-2.076,-2.0734,-2.0697,-2.0677,-2.0637,-2.0601,-2.0574,-2.0568,-2.0594,-2.0601,-2.0584,-2.0571,-2.0562,-2.056,-2.0766,-2.0603,-2.0605,-2.0606,-2.0607,-2.0607,-2.0736,-2.0702,-2.0695,-2.0664,-2.0656,-2.064,-2.0608,-2.0613,-2.0584,-2.0553,-2.0571,-2.0526,-2.0514,-2.0479,-2.0469,-2.0432,-2.0457,-2.0435,-2.0429,-2.0421,-2.041,-2.0574,-2.0428,-2.0429,-2.0429,-2.043,-2.043,0,-2.0584,-2.0582,-2.0554,-2.0531,-2.0506,-2.0538,-2.0522,-2.0497,-2.0458,-2.0446,-2.042,-2.0375,-2.034,-2.0341,-2.0307,-2.0277,-2.0288,-2.0267,-2.0266,-2.0263,-2.0394,-2.0408,-2.0258,-2.0258,-2.0258,-2.0258,-2.0258,-2.0258,-2.0502,-2.0445,-2.0454,-2.0392,-2.039,-2.0347,-2.0335,-2.0319,-2.0309,-2.0258,-2.0229,-2.0231,-2.0222,-2.0189,-2.0156,-2.0157,-2.014,-2.0113,-2.0117,-2.0238,-2.0255,-2.0271,-2.0284,-2.0111,-2.011,-1.9989,-1.9988,-1.9987]}]]